Regional Weather Roundup
Issued by NWS Upton, NY

Current Version | Previous Version | Graphics & Text | Print | Product List | Glossary Off
Versions: 1 2 3 4 5 6 7 8 9 10 11 12 13 14 15 16 17 18 19 20 21 22 23 24 25 26 27 28 29 30 31 32 33 34 35 36 37 38 39 40 41 42 43 44 45 46 47 48 49 50
000 ASUS41 KOKX 260205 RWROKX REGIONAL WEATHER ROUNDUP NATIONAL WEATHER SERVICE NEW YORK NY 900 PM EST SUN JAN 25 2015 NOTE: "FAIR" INDICATES FEW OR NO CLOUDS BELOW 12,000 FEET WITH NO SIGNIFICANT WEATHER AND/OR OBSTRUCTIONS TO VISIBILITY. NYZ071-072-176-178-NJZ106-104-260300- NEW YORK CITY METRO AREA CITY SKY/WX TMP DP RH WIND PRES REMARKS CENTRAL PARK CLOUDY 34 9 35 VRB5 29.98R WCI 30 LAGUARDIA APRT CLOUDY 33 12 41 N14 29.96R WCI 23 KENNEDY INTL CLOUDY 35 10 35 N13 29.96R WCI 26 NEWARK/LIBERTY CLOUDY 32 13 45 N12 29.96R WCI 23 BRNX BOT. GARD N/A N/A N/A N/A NE2 29.96R TETERBORO CLOUDY 32 11 41 N7 29.96R WCI 26 $$ NYZ177-179-078>081-260300- LONG ISLAND NEW YORK CITY SKY/WX TMP DP RH WIND PRES REMARKS FARMINGDALE MOCLDY 33 12 41 N12 29.95R WCI 24 ISLIP CLOUDY 32 16 51 N7 29.94R WCI 26 SHIRLEY MOCLDY 31 15 52 NW7 29.97R WCI 24 WESTHAMPTON MOCLDY 27 16 63 N6 29.97R WCI 20 MONTAUK POINT N/A 33 12 41 N10 29.97R WCI 25 $$ NYZ052-065-067-260300- HUDSON VALLEY CITY SKY/WX TMP DP RH WIND PRES REMARKS WHITE PLAINS MOCLDY 28 11 48 NW7 29.94R WCI 21 NEWBURGH PTCLDY 23 10 58 NE7 29.97R WCI 15 MONTGOMERY MOCLDY 25 6 44 NW6 29.95R WCI 18 POUGHKEEPSIE PTCLDY 23 4 44 NE8 29.99R WCI 14 ALBANY MOCLDY 16 1 51 NW6 30.02R WCI 7 $$ NJZ001-105-106-008-010-013-015-019>022-104-260300- NEW JERSEY CITY SKY/WX TMP DP RH WIND PRES REMARKS NEWARK/LIBERTY CLOUDY 32 13 45 N12 29.96R WCI 23 TETERBORO CLOUDY 32 11 41 N7 29.96R WCI 26 CALDWELL CLOUDY 31 8 38 CALM 29.97R MORRISTOWN CLOUDY 32 9 37 NE6 29.96R WCI 26 SOMERVILLE CLOUDY 34 12 40 N7 29.94R WCI 28 SUSSEX CLOUDY 27 7 42 NE6 29.96R WCI 20 ANDOVER N/A 27 9 46 VRB3 29.95R TRENTON CLOUDY 35 16 45 NE10 29.92R WCI 27 MILLVILLE CLOUDY 42 32 67 N5 29.91R ATLANTIC CITY CLOUDY 41 31 67 NE5 29.93R WRIGHTSTOWN CLOUDY 37 32 81 NE10 29.91R WCI 30 TOMS RIVER CLOUDY 37 32 81 NE8 29.93S WCI 31 BELMAR CLOUDY 36 14 41 NE9 29.94R WCI 29 $$ PAZ047>061-062-071-260300- EASTERN PENNSYLVANIA CITY SKY/WX TMP DP RH WIND PRES REMARKS PHILADELPHIA LGT RAIN 39 34 82 NE5 29.93R ALLENTOWN CLOUDY 33 16 49 NE8 29.94R WCI 26 SCRANTON CLOUDY 23 10 57 NE10 29.93R WCI 12 $$ CTZ002-004>006-009-010-012-RIZ004-006-007-MAZ004-011-015-260300- SOUTHERN NEW ENGLAND IN CT CITY SKY/WX TMP DP RH WIND PRES REMARKS BRADLEY INTL PTCLDY 21 1 41 NW9 29.98R WCI 11 HARTFORD PTCLDY 23 0 36 NW7 30.00R WCI 15 DANBURY PTCLDY 24 4 42 NE7 29.97R WCI 16 WTRBRY/OXFORD PTCLDY 21 1 42 N9 29.94R WCI 11 BRIDGEPORT PTCLDY 29 11 47 N6 29.98R WCI 23 MERIDEN CLEAR 25 5 42 N8 29.98R WCI 16 NEW HAVEN PTCLDY 28 9 44 N8 29.97R WCI 20 CHESTER FAIR 28 9 43 N6 29.96R WCI 22 GROTON PTCLDY 27 7 42 N12 29.97R WCI 17 WILLIMANTIC PTCLDY 24 1 36 NW5 29.96R WCI 18 IN RI CITY SKY/WX TMP DP RH WIND PRES REMARKS PROVIDENCE FAIR 25 7 46 W7 29.95R WCI 17 BLOCK ISLAND PTCLDY 30 7 37 N13G18 29.93R WCI 20 WESTERLY PTCLDY 28 6 39 N10 29.97R WCI 19 IN MA CITY SKY/WX TMP DP RH WIND PRES REMARKS BOSTON PTCLDY 25 7 46 NW8 29.96R WCI 16 WORCESTER PTCLDY 17 3 54 NW6 29.90R WCI 9 WESTFIELD PTCLDY 19 2 47 NW7 29.97R WCI 10 PROVINCETOWN CLEAR 30 10 43 NW21G26 29.94R WCI 17 NANTUCKET PTCLDY 32 12 43 NW14 29.92R WCI 22 $$ ANZ330-335-338-340-345-350-353-355-260300- COASTAL MARINE OBSERVATIONS STATION/POSITION TIME SKY/WX TEMP WIND PRES VSBY WAVE AIR SEA DIR/SP/G HT/PER (UTC) (F) (DEG/KT/KT) (MB) (MI) (FT/S) NY HARB ENTRANCE 0200 38 42 350/ 14/ 17 1013.6 3/11 4S FIRE IS 0200 39 N/A 3/12 20S FIRE ISLAND 0100 41 1013.8 4/12 23SW MTP 0200 N/A 6/11 HUDSON CANYON NOT AVBL EXECUTION ROCKS 0200 34 35 10/ 8/ 10 N/A WESTERN LI SOUND 0200 34 330/ 10/ 12 N/A 0 CENTRAL LI SOUND 0100 32 36 350/ 16/ 19 N/A 2/ 4 EASTERN LI SOUND NOT AVBL ROBBINS REEF 0100 34 350/ 10/ 14 1013.0 $$ >>>>>>>>>>>>>>>>>>>>>>>>>>>> KEY <<<<<<<<<<<<<<<<<<<<<<<<<<< > < > SKY/WX - SKY CONDITION/PRESENT WEATHER < > TMP - TEMPERATURE IN FAHRENHEIT < > DP - DEWPOINT IN FAHRENHEIT < > RH - RELATIVE HUMIDITY IN PERCENT < > WIND - DIRECTION AND SPEED IN MPH < > PRES - MEAN SEA LEVEL PRESSURE IN INCHES OF HG < > WCI - WIND CHILL INDEX < > VSB - VISIBILITY IN MILES < > HX - HEAT INDEX < > TC - TEMPERATURE IN CELSIUS < > VRB - VARIABLE WIND DIRECTION < > < >>>>>>>>>>>>>>>>>>>>>>>>>>>> KEY <<<<<<<<<<<<<<<<<<<<<<<<<<<

USA.gov is the U.S. government's official web portal to all federal, state and local government web resources and services.